[[{"header":{"parameterUnit":"m.s-1","parameterCategory":1,"la1":30.2991,"la2":30.254,"lo1":-89.0895,"lo2":-89.0444,"dy":0.0017,"dx":0.0017,"nx":28,"ny":28,"refTime":"2024-05-10T03:00:00:Z","depth":0,"parameterNumber":2,"parameterNumberName":"U-component_of_WINDS"},"data":[0,0,0,0,0,0,0,0,0,0,0,0,0,0,0,0,0,0,0,0,0,0,0,0,0,0,0,0,0,0,0,0,0,0,0,0,0,0,0,0,0,0,0,0,0,0,0,0,0,0,0,0,0,0,0,0,0,0,-1.7901,-1.7903,0,-1.8035,-1.8036,-1.8038,-1.8035,-1.8033,-1.8032,-1.803,-1.8169,-1.8174,-1.818,0,0,0,0,0,0,0,0,0,0,0,0,0,-1.7646,-1.7651,-1.7901,-1.7903,-1.7904,-1.8034,-1.8036,-1.8038,-1.8035,-1.8033,-1.8031,-1.8029,-1.8167,-1.8174,-1.818,0,0,0,0,0,0,0,0,0,0,0,0,0,-1.7766,-1.7652,-1.7901,-1.7919,-1.7922,-1.8034,-1.8036,-1.8038,-1.8036,-1.8033,-1.803,-1.8028,-1.8165,-1.8173,-1.8181,-1.8285,0,0,-1.8206,-1.8209,0,0,0,0,0,0,0,0,-1.7759,-1.7775,-1.7914,-1.7918,-1.7921,-1.8015,-1.7997,-1.8121,-1.8037,-1.7993,-1.803,-1.8027,-1.812,-1.8132,-1.8163,-1.8292,-1.8298,-1.8207,-1.8212,-1.8215,-1.8217,0,0,0,0,0,0,0,-1.7751,-1.777,-1.7954,-1.7916,-1.7921,-1.7921,-1.7935,-1.8021,-1.807,-1.7996,-1.7996,-1.8012,-1.8122,-1.8155,-1.8166,-1.83,-1.8206,-1.8214,-1.8219,-1.8222,-1.8522,-1.8524,0,0,0,0,0,0,-1.7738,-1.7763,-1.795,-1.7958,-1.7832,-1.7927,-1.7943,-1.7988,-1.8069,-1.8079,-1.8014,-1.8011,-1.8143,-1.8157,-1.8171,-1.83,-1.8215,-1.8223,-1.8227,-1.8518,-1.8522,-1.8526,0,0,0,0,0,0,-1.7733,-1.7755,-1.7944,-1.786,-1.7884,-1.7935,-1.7985,-1.7992,-1.8026,-1.8083,-1.8092,-1.8039,-1.8141,-1.816,-1.8257,-1.8304,-1.8226,-1.8234,-1.8515,-1.852,-1.8524,-1.8556,0,0,0,0,0,0,-1.7726,-1.7753,-1.7793,-1.7861,-1.7889,-1.8027,-1.7988,-1.7997,-1.8039,-1.8037,-1.8109,-1.8118,-1.8141,-1.8245,-1.8265,-1.8314,-1.824,-1.8511,-1.8517,-1.8522,-1.8551,-1.8562,-1.857,0,0,0,0,0,-1.7716,-1.7797,-1.7795,-1.7817,-1.7939,-1.803,-1.8046,-1.8069,-1.8043,-1.8084,-1.812,-1.8116,-1.8295,-1.8255,-1.8278,-1.833,-1.8508,-1.8515,-1.8522,-1.8547,-1.856,-1.857,0,0,0,0,0,0,-1.7734,-1.7806,-1.7805,-1.791,-1.7964,-1.8029,-1.8082,-1.8082,-1.8145,-1.814,-1.8167,-1.8184,-1.8281,-1.8315,-1.8268,-1.8435,-1.8398,-1.841,-1.841,-1.8422,-1.8431,-1.8422,-1.8247,0,0,0,0,0,-1.775,-1.7817,-1.7876,-1.7963,-1.799,-1.8031,-1.8072,-1.8085,-1.8142,-1.8165,-1.8209,-1.8266,-1.8335,-1.838,-1.8447,-1.8555,-1.8572,-1.8602,-1.8612,-1.8619,-1.863,-1.8691,-1.8706,-1.8549,-1.8548,-1.8548,0,0,-1.7784,-1.7832,-1.7873,-1.7968,-1.8012,-1.8081,-1.8051,-1.8125,-1.8177,-1.8177,-1.8272,-1.8305,-1.837,-1.8474,-1.8522,-1.8505,-1.8677,-1.8628,-1.8634,-1.8641,-1.87,-1.8714,-1.8728,-1.8553,-1.8552,-1.8552,0,0,-1.7882,-1.7924,-1.8002,-1.8045,-1.8111,-1.8137,-1.8156,-1.8222,-1.8244,-1.8339,-1.834,-1.8402,-1.8521,-1.8567,-1.8606,-1.872,-1.8719,-1.8741,-1.8792,-1.8851,-1.8863,-1.8874,-1.8917,-1.8931,-1.8751,-1.8751,-1.8751,0,-1.7917,-1.8021,-1.8042,-1.8117,-1.8159,-1.816,-1.824,-1.8281,-1.8366,-1.8395,-1.8375,-1.8523,-1.8567,-1.8682,-1.871,-1.8741,-1.8764,-1.8734,-1.8859,-1.8871,-1.8882,-1.8922,-1.8938,-1.8754,-1.8753,-1.8753,-1.8753,0,-1.8061,-1.8132,-1.8187,-1.8268,-1.8316,-1.8393,-1.8426,-1.8473,-1.8481,-1.851,-1.8607,-1.8659,-1.8737,-1.8764,-1.8774,-1.8881,-1.8869,-1.8853,-1.8818,-1.8899,-1.8937,-1.8953,-1.8757,-1.8756,-1.8755,-1.8755,0,0,-1.8176,-1.8266,-1.8286,-1.8323,-1.8394,-1.8451,-1.8527,-1.8602,-1.8642,-1.87,-1.8766,-1.8865,-1.8852,-1.8896,-1.891,-1.8962,-1.9051,-1.8941,-1.8943,-1.8961,-1.9174,-1.9186,-1.9204,-1.9049,-1.9052,-1.9054,-1.9169,0,-1.8283,-1.8419,-1.8439,-1.8559,-1.8627,-1.8628,-1.8695,-1.8747,-1.8775,-1.8837,-1.8868,-1.8939,-1.8915,-1.8942,-1.8993,-1.9029,-1.9094,-1.9021,-1.9112,-1.9115,-1.9098,-1.9224,-1.9237,-1.9342,-1.9184,-1.9186,-1.9188,0,-1.8426,-1.8487,-1.8613,-1.8676,-1.8705,-1.8765,-1.8835,-1.8894,-1.8952,-1.897,-1.9018,-1.9026,-1.9107,-1.9065,-1.9177,-1.9127,-1.9165,-1.9189,-1.9193,-1.9205,-1.9158,-1.924,-1.9376,-1.9393,-1.9212,-1.921,-1.9208,0,-1.85,-1.8613,-1.8703,-1.8734,-1.8809,-1.8851,-1.8885,-1.894,-1.8984,-1.9046,-1.9074,-1.9144,-1.9184,-1.9238,-1.9265,-1.9232,-1.9376,-1.9336,-1.9393,-1.9393,-1.9426,-1.9424,-1.9572,-1.9447,-1.9446,-1.9446,-1.9446,0,-1.8618,-1.8696,-1.8737,-1.8793,-1.8881,-1.8903,-1.899,-1.9022,-1.9071,-1.9134,-1.9139,-1.9198,-1.9228,-1.9292,-1.9314,-1.9404,-1.9421,-1.9438,-1.9443,-1.9439,-1.9437,-1.9466,-1.946,-1.945,-1.9449,-1.9449,-1.9448,0,-1.8716,-1.8747,-1.8846,-1.8908,-1.8925,-1.8987,-1.9041,-1.9095,-1.9122,-1.9202,-1.9222,-1.9265,-1.9341,-1.9372,-1.9465,-1.9479,-1.9583,-1.9582,-1.9563,-1.9566,-1.9622,-1.9617,-1.9796,-1.9821,-1.9677,-1.9678,-1.9679,0,-1.8791,-1.8851,-1.8919,-1.8961,-1.8995,-1.9063,-1.9107,-1.9131,-1.9178,-1.9248,-1.9295,-1.937,-1.9431,-1.9551,-1.9592,-1.9663,-1.9664,-1.9722,-1.9675,-1.9669,-1.9668,-1.9665,-1.9671,-1.9732,-1.9733,-1.9734,-1.9735,0,-1.8921,-1.8933,-1.8996,-1.9065,-1.9118,-1.9173,-1.9227,-1.9261,-1.9294,-1.9346,-1.9422,-1.947,-1.9564,-1.9639,-1.9712,-1.9747,-1.9747,-1.9749,-1.9767,-1.9764,-1.9752,-1.9761,-1.9589,-1.9746,-1.9745,-1.9744,-1.9743,-1.9743,-1.9012,-1.9065,-1.9121,-1.9192,-1.9234,-1.9285,-1.9339,-1.9373,-1.9437,-1.9515,-1.9525,-1.9607,-1.9664,-1.9762,-1.98,-1.9865,-1.9851,-1.9875,-1.9882,-1.9888,-1.9893,-1.9739,-1.9878,-1.9878,-1.9878,-1.9877,-1.9877,0,-1.9144,-1.9179,-1.9244,-1.9319,-1.9374,-1.9368,-1.9427,-1.9474,-1.9546,-1.9599,-1.9659,-1.9747,-1.9819,-1.9864,-1.9938,-1.9981,-1.9983,-2.0,-1.9998,-2.0006,-1.9901,-1.9879,-1.9997,-1.9997,-1.9997,-1.9997,-1.9997,-1.9997,-1.9219,-1.9309,-1.9328,-1.9439,-1.9475,-1.9555,-1.9589,-1.9636,-1.9678,-1.9776,-1.9836,-1.9864,-1.9914,-1.9991,-2.0057,-2.0069,-2.0096,-2.0114,-2.0125,-2.0026,-2.0014,-2.0002,-1.9982,-2.0119,-2.0119,-2.0225,-2.0226,-2.0227]},{"header":{"parameterUnit":"m.s-1","parameterCategory":1,"la1":30.2991,"la2":30.254,"lo1":-89.0895,"lo2":-89.0444,"dy":0.0017,"dx":0.0017,"nx":28,"ny":28,"refTime":"2024-05-10T03:00:00:Z","depth":0,"parameterNumber":3,"parameterNumberName":"V-component_of_WINDS"},"data":[0,0,0,0,0,0,0,0,0,0,0,0,0,0,0,0,0,0,0,0,0,0,0,0,0,0,0,0,0,0,0,0,0,0,0,0,0,0,0,0,0,0,0,0,0,0,0,0,0,0,0,0,0,0,0,0,0,0,-5.9859,-5.9859,0,-5.9931,-5.9932,-5.9933,-5.9849,-5.9845,-5.9842,-5.9839,-5.991,-5.9914,-5.9919,0,0,0,0,0,0,0,0,0,0,0,0,0,-5.9642,-5.9646,-5.9859,-5.9859,-5.986,-5.9931,-5.9932,-5.9933,-5.9849,-5.9845,-5.9841,-5.9838,-5.9908,-5.9914,-5.9919,0,0,0,0,0,0,0,0,0,0,0,0,0,-5.9727,-5.9648,-5.9858,-5.9827,-5.9825,-5.9931,-5.9932,-5.9933,-5.985,-5.9845,-5.984,-5.9836,-5.9906,-5.9913,-5.992,-6.0059,0,0,-5.9942,-5.9945,0,0,0,0,0,0,0,0,-5.9723,-5.9735,-5.9831,-5.9829,-5.9827,-5.9876,-5.9881,-5.9975,-5.9851,-5.984,-5.9839,-5.9834,-5.9902,-5.9909,-5.9933,-6.0062,-6.0065,-5.9943,-5.9947,-5.995,-5.9952,0,0,0,0,0,0,0,-5.9717,-5.9732,-5.9887,-5.9832,-5.983,-5.9808,-5.9815,-5.9899,-5.9897,-5.9841,-5.9835,-5.9845,-5.99,-5.9926,-5.9934,-6.0067,-5.9943,-5.9949,-5.9953,-5.9956,-6.0312,-6.0317,0,0,0,0,0,0,-5.9715,-5.9727,-5.9885,-5.9889,-5.9762,-5.9815,-5.9823,-5.9865,-5.9895,-5.9896,-5.9849,-5.9841,-5.9916,-5.9926,-5.9936,-6.01,-5.995,-5.9957,-5.9961,-6.0307,-6.0313,-6.0318,0,0,0,0,0,0,-5.9711,-5.973,-5.9882,-5.9807,-5.9824,-5.9824,-5.9872,-5.9869,-5.9895,-5.9902,-5.99,-5.9877,-5.9913,-5.9926,-6.0029,-6.0102,-5.996,-5.9967,-6.0301,-6.0309,-6.0316,-6.043,0,0,0,0,0,0,-5.9705,-5.9729,-5.9783,-5.9809,-5.9829,-5.9976,-5.9876,-5.9874,-5.9908,-5.9898,-5.9927,-5.9927,-5.991,-6.0019,-6.0036,-6.0109,-5.9972,-6.0294,-6.0304,-6.0313,-6.042,-6.0441,-6.0459,0,0,0,0,0,-5.9697,-5.9812,-5.9786,-5.9806,-5.9897,-5.998,-5.9991,-5.9971,-5.9915,-5.9968,-5.9972,-5.9926,-6.0091,-6.003,-6.0049,-6.0125,-6.029,-6.0301,-6.0313,-6.0411,-6.0437,-6.0458,0,0,0,0,0,0,-5.9793,-5.9815,-5.9787,-5.9913,-5.9946,-5.9966,-6.0033,-5.9998,-6.0046,-6.0035,-6.0006,-6.0013,-6.0123,-6.0134,-6.0066,-6.026,-6.0181,-6.0197,-6.0249,-6.0274,-6.0293,-6.0288,-5.9978,0,0,0,0,0,-5.983,-5.9897,-5.9911,-6.0021,-6.0039,-6.0033,-6.0069,-6.005,-6.0082,-6.0095,-6.0106,-6.0138,-6.0196,-6.0235,-6.0289,-6.0421,-6.0425,-6.0482,-6.0501,-6.0517,-6.0531,-6.0601,-6.0626,-6.0356,-6.0356,-6.0356,0,0,-5.9904,-5.9924,-5.9968,-6.0041,-6.0064,-6.0133,-6.0045,-6.0122,-6.0172,-6.0106,-6.0204,-6.0214,-6.0247,-6.0364,-6.0417,-6.0377,-6.0607,-6.0532,-6.0545,-6.055,-6.0615,-6.0641,-6.0663,-6.0364,-6.0363,-6.0361,0,0,-6.0076,-6.0098,-6.0192,-6.0217,-6.0253,-6.0249,-6.0271,-6.0297,-6.0301,-6.0399,-6.0351,-6.0409,-6.0511,-6.0536,-6.0562,-6.0742,-6.0702,-6.076,-6.0862,-6.093,-6.0951,-6.0969,-6.1033,-6.1056,-6.0774,-6.0775,-6.0775,0,-6.0164,-6.0268,-6.0244,-6.0325,-6.0358,-6.0301,-6.0395,-6.042,-6.0472,-6.0495,-6.045,-6.0576,-6.0594,-6.0716,-6.076,-6.0783,-6.0807,-6.0757,-6.095,-6.0968,-6.0985,-6.1046,-6.107,-6.0782,-6.0781,-6.078,-6.0779,0,-6.0374,-6.0446,-6.0517,-6.057,-6.0611,-6.0697,-6.0685,-6.0729,-6.0706,-6.0706,-6.0805,-6.0825,-6.0882,-6.091,-6.0888,-6.1029,-6.1003,-6.0955,-6.0874,-6.1018,-6.1075,-6.1098,-6.0791,-6.0789,-6.0787,-6.0785,0,0,-6.0609,-6.0647,-6.0674,-6.0697,-6.0732,-6.0787,-6.087,-6.0927,-6.0964,-6.1001,-6.1069,-6.1156,-6.1111,-6.1141,-6.1121,-6.1181,-6.1321,-6.1125,-6.1125,-6.116,-6.1477,-6.1513,-6.154,-6.1294,-6.1299,-6.1302,-6.1474,0,-6.0781,-6.0927,-6.0908,-6.1048,-6.1113,-6.106,-6.1132,-6.1161,-6.1162,-6.1217,-6.1217,-6.1279,-6.1216,-6.1233,-6.129,-6.1293,-6.1384,-6.128,-6.1356,-6.1359,-6.135,-6.157,-6.1609,-6.177,-6.1496,-6.1499,-6.1502,0,-6.1002,-6.1048,-6.1195,-6.1219,-6.1246,-6.1312,-6.1361,-6.1415,-6.1445,-6.1442,-6.1475,-6.1444,-6.1525,-6.1443,-6.1554,-6.1483,-6.1513,-6.1519,-6.1524,-6.1531,-6.144,-6.1582,-6.1821,-6.1845,-6.1536,-6.1534,-6.1531,0,-6.1158,-6.1257,-6.1357,-6.1378,-6.141,-6.1457,-6.1471,-6.1497,-6.1532,-6.1575,-6.1597,-6.1649,-6.1677,-6.1717,-6.17,-6.1642,-6.1813,-6.173,-6.1812,-6.1812,-6.1851,-6.1849,-6.2098,-6.187,-6.187,-6.1869,-6.1869,0,-6.1353,-6.1444,-6.1428,-6.149,-6.159,-6.1566,-6.1665,-6.1673,-6.1697,-6.1758,-6.1714,-6.1772,-6.1746,-6.1801,-6.1788,-6.1882,-6.1894,-6.1893,-6.1888,-6.1897,-6.1897,-6.1916,-6.1905,-6.1876,-6.1874,-6.1873,-6.1872,0,-6.1545,-6.1538,-6.1643,-6.1664,-6.1671,-6.1745,-6.1761,-6.1818,-6.1816,-6.1893,-6.191,-6.1906,-6.1969,-6.1956,-6.2025,-6.2016,-6.2133,-6.2114,-6.2123,-6.2119,-6.2201,-6.2193,-6.2471,-6.2506,-6.2256,-6.2259,-6.2261,0,-6.1669,-6.1739,-6.1767,-6.1806,-6.1824,-6.1887,-6.1922,-6.19,-6.1939,-6.1978,-6.203,-6.2089,-6.2136,-6.2238,-6.224,-6.2292,-6.2274,-6.2368,-6.2282,-6.2288,-6.2275,-6.2272,-6.2278,-6.2385,-6.2388,-6.2391,-6.2392,0,-6.1891,-6.1884,-6.1938,-6.1991,-6.2035,-6.2076,-6.2111,-6.2145,-6.2125,-6.2171,-6.2235,-6.2271,-6.2342,-6.2401,-6.2449,-6.2461,-6.2424,-6.242,-6.2441,-6.2451,-6.2453,-6.2452,-6.217,-6.2413,-6.2411,-6.241,-6.2409,-6.2408,-6.2053,-6.2112,-6.2141,-6.2203,-6.2227,-6.2262,-6.2316,-6.2321,-6.2374,-6.2431,-6.2414,-6.2487,-6.2514,-6.2575,-6.2593,-6.2649,-6.2614,-6.2645,-6.2653,-6.2661,-6.2671,-6.2444,-6.2657,-6.2657,-6.2656,-6.2656,-6.2655,0,-6.2272,-6.2288,-6.2345,-6.2397,-6.2445,-6.2406,-6.2443,-6.2486,-6.2551,-6.258,-6.2626,-6.27,-6.2756,-6.2763,-6.2815,-6.2859,-6.2843,-6.2873,-6.287,-6.2873,-6.27,-6.2676,-6.2885,-6.2885,-6.2885,-6.2885,-6.2885,-6.2885,-6.2392,-6.249,-6.2486,-6.2594,-6.2609,-6.2682,-6.2706,-6.2737,-6.2759,-6.2844,-6.2891,-6.2895,-6.2915,-6.2968,-6.3018,-6.3018,-6.3039,-6.3077,-6.307,-6.2908,-6.2885,-6.2864,-6.2841,-6.3082,-6.3082,-6.3239,-6.324,-6.3242]}]]